SCP
-0 -0 -0 -0 -0 -0 -0 -0 -0 -0 -0 -0 0 0 0 0 0 -0 -0 -0 0 0 0 0 0 0 0 0 0 0 0 0 0 0 0 0 0 0 0 0 0 0 0 0 0
-0 -0 -0 -0 -0 -0 -0 -0 -0 -0 -0 -0 -0 -0 0 0 0 -0 0 0 0 -0 0 0 0 0 0 0 0 0 0 0 0 0 0 0 0 0 0 0 0 0 0 0 0
0 0 -0 -0 -0 -0 -0 -0 -0 -0 -0 -0 -0 -0 0 -0 0 -0 0 0 0 -0 -0 0 0 0 0 0 0 0 0 0 0 0 0 -0 -0 -0 0 0 0 0 0 0 0
0 -0 -0 -0 -0 -0 -0 -0 -0 -0 -0 -0 0 0 0 -0 -0 0 0 0 0 -0 -0 -0 0 0 0 0 0 0 0 0 0 0 0 -0 -0 -0 -0 0 0 0 0 0 0
-0 -0 -0 -0 -0 -0 -0 -0 -0 0 0 -0 -0 0 0 -0 -0 0 0 -0 -0 -0 -0 -0 -0 0 0 0 0 0 0 0 0 0 0 0 -0 -0 -0 0 0 0 0 0 0
-0 -0 -0 -0 -0 -0 -0 -0 -0 0 0 0 0 0 -0 0 0 -0 -0 -0 -0 -0 -0 -0 -0 0 0 0 0 0 0 0 0 0 0 0 -0 -0 -0 0 0 -0 0 0 0
-0 -0 -0 -0 -0 -0 -0 -0 -0 0 0 0 -0 -0 0 -0 -0 -0 -0 -0 -0 -0 -0 -0 -0 -0 0 -0 0 0 0 0 0 0 0 0 0 0 -0 -0 0 0 0 0 0
-0 -0 -0 -0 -0 -0 -0 0 -0 -0 -0 -0 -0 -0 -0 0 -0 -0 -0 -0 -0 -0 -0 -0 -0 -0 -0 -0 0 0 0 0 0 0 0 0 0 0 0 0 0 0 0 0 0
-0 -0 -0 -0 -0 -0 -0 -0 0 -0 0 -0 0 -0 -0 -0 0 0 -0 -0 -0 -0 -0 -0 -0 -0 -0 -0 -0 0 -0 0 0 0 0 0 0 0 0 0 0 0 0 0 0
0 0 -0 -0 -0 -0 0 0 0 0 -0 0 -0 0 -0 0 0 0 -0 -0 -0 -0 -0 -0 -0 -0 -0 -0 -0 -0 0 0 0 0 0 0 0 0 0 0 0 -0 0 0 0
0 0 0 0 -0 0 0 0 0 0 0 0 0 -0 -0 -0 0 -0 0 -0 -0 -0 -0 -0 -0 -0 -0 -0 0 0 0 0 0 0 0 0 0 0 0 0 0 0 0 0 0
0 0 0 0 0 0 0 0 0 0 0 0 -0 -0 0 0 0 0 0 0 -0 -0 -0 -0 -0 -0 -0 0 0 0 0 0 0 0 0 0 0 -0 -0 0 0 0 0 0 0
0 0 0 0 0 0 0 0 0 0 0 0 0 0 0 0 0 0 0 0 0 -0 -0 -0 0 0 0 0 0 0 0 0 0 0 0 0 -0 -0 0 0 0 0 0 0 0
0 0 0 0 0 0 0 -0 0 0 0 0 0 0 0 0 0 0 0 0 0 0 -0 0 0 0 0 0 0 0 0 0 0 0 0 0 -0 -0 -0 0 0 0 0 0 0
0 0 0 0 0 0 0 0 0 0 0 0 -0 0 0 0 0 0 0 0 0 0 0 0 0 0 0 0 0 0 0 0 0 0 0 0 0 -0 -0 0 0 0 0 0 0
0 0 0 0 0 0 0 0 0 0 0 0 0 0 0 0 0 0 0 0 0 0 0 0 0 0 0 0 0 0 0 0 0 0 0 0 0 0 0 0 0 0 0 0 0
0 0 0 0 0 0 0 0 0 0 0 0 0 0 0 0 0 0 0 0 0 0 0 0 0 0 0 0 0 0 0 0 0 0 0 0 0 0 0 0 0 0 0 0 0
0 0 0 0 0 0 0 0 0 0 0 0 0 0 0 0 0 0 0 0 0 0 0 0 0 0 0 0 0 0 0 0 0 0 0 0 0 0 0 0 0 0 0 0 0
0 0 0 0 0 0 0 0 0 0 0 0 0 0 0 0 0 0 0 0 0 0 0 0 0 0 0 0 0 0 0 0 0 0 0 0 0 0 0 0 0 0 -0 -0 -0
0 0 0 0 0 0 0 0 0 0 0 0 0 0 0 0 0 0 0 0 0 0 0 0 0 0 0 0 0 0 0 0 0 0 0 0 0 0 0 0 0 0 -0 -0 -0
0 0 0 0 0 0 0 0 0 0 0 0 0 0 0 0 0 0 0 0 0 0 0 0 0 0 0 0 0 0 0 0 0 0 0 0 0 0 0 0 0 0 0 0 -0
0 0 0 0 0 0 0 0 0 0 0 0 0 0 0 0 0 0 0 0 0 0 0 0 0 0 0 0 0 0 0 0 0 0 0 0 0 0 0 0 0 0 0 0 0
0 0 0 0 0 0 0 0 0 0 0 0 0 0 0 0 0 0 0 0 0 0 0 0 0 0 0 0 0 0 0 0 0 0 0 0 0 0 0 0 0 0 0 0 0
0 0 0 0 0 0 0 0 0 0 0 0 0 0 0 0 0 0 0 0 0 0 0 0 0 0 0 0 0 0 0 0 0 0 0 0 0 0 0 0 0 0 0 -0 0
0 0 0 0 0 0 0 0 0 0 0 0 0 0 0 0 0 0 0 0 0 0 0 0 0 0 0 0 0 0 0 0 0 0 0 0 0 0 0 0 0 0 0 0 -0
0 0 0 0 0 0 0 0 0 0 0 0 0 0 0 0 0 0 0 0 0 0 0 0 0 0 0 0 0 0 0 0 0 0 0 0 0 0 0 0 0 0 0 0 0
0 0 0 0 0 0 0 0 0 0 0 0 0 0 0 0 0 0 0 0 0 0 0 0 0 0 0 0 0 0 0 0 0 0 0 0 0 0 0 0 0 0 0 0 0
Wind_Speed_500mb
31 33 33 33 34 36 35 40 41 36 35 30 26 21 19 24 27 26 44 42 43 45 42 30 14 19 9 3 7 9 1 8 11 9 18 4 9 14 14 15 16 17 18 16 36
31 33 33 35 38 36 37 41 40 37 31 26 25 21 12 16 60 69 49 45 46 48 47 41 27 26 8 10 4 5 2 7 7 11 19 27 19 48 15 26 23 37 40 28 35
30 31 30 32 37 32 34 39 36 39 38 30 29 38 10 12 23 58 52 46 44 43 41 27 18 17 13 15 21 15 2 16 21 48 60 43 36 42 18 23 44 33 41 34 46
26 27 28 31 32 29 33 34 33 42 53 35 31 56 30 14 12 48 47 43 41 38 38 32 33 11 10 10 14 11 10 12 26 46 41 40 43 40 34 26 32 40 32 40 60
23 24 28 28 28 27 27 33 26 30 37 59 34 29 41 52 34 43 38 39 39 39 46 37 49 16 8 10 24 2 23 43 53 59 51 50 41 35 47 61 71 60 58 39 65
19 21 24 26 24 23 23 28 20 25 28 36 42 61 62 43 47 41 35 34 38 41 42 42 27 19 11 10 8 33 37 46 37 52 53 26 36 22 23 37 52 48 59 54 68
15 18 20 23 23 23 25 14 27 14 13 19 37 36 67 44 41 31 28 31 33 30 31 33 38 45 7 10 26 24 11 17 21 43 27 49 37 23 36 47 55 55 50 50 63
14 16 19 22 24 19 21 28 6 20 21 12 14 26 24 44 38 28 33 27 25 22 27 32 28 33 21 13 12 14 11 13 21 35 30 48 40 27 48 53 32 35 50 57 60
14 16 19 22 22 15 8 8 37 6 20 35 18 7 11 41 57 38 38 32 28 23 29 24 20 27 42 10 10 15 10 22 17 41 28 13 42 44 80 67 41 37 31 36 53
12 14 16 17 16 17 17 10 10 38 5 9 22 9 24 28 47 43 29 33 28 16 15 31 16 13 13 15 9 12 9 10 17 20 29 39 38 40 59 68 62 48 36 36 28
10 11 13 17 17 19 19 1 2 3 40 22 18 11 17 27 30 50 33 21 37 29 12 17 17 14 9 6 5 7 8 17 14 17 28 36 45 43 55 59 56 60 52 40 46
10 10 11 15 16 22 19 7 11 12 14 15 16 13 10 20 12 50 41 21 31 11 15 11 9 9 7 6 5 5 10 14 15 26 28 33 45 35 26 27 53 66 61 49 50
10 9 9 13 10 15 22 16 11 9 4 2 7 11 12 14 14 38 43 12 16 13 11 5 3 9 6 8 18 10 7 10 21 23 23 15 20 15 36 42 41 51 39 43 39
9 8 7 10 6 14 18 12 6 4 9 10 6 9 14 10 3 25 30 14 11 12 8 6 9 9 9 8 6 11 6 13 24 28 12 9 19 17 24 21 9 45 48 36 51
10 10 6 3 4 8 9 8 4 4 7 4 7 9 9 11 16 23 22 9 5 6 9 7 13 14 5 4 2 15 15 18 29 24 9 8 3 13 21 31 11 26 39 47 50
11 11 7 5 3 5 8 6 5 11 10 7 7 16 8 15 12 23 17 11 4 6 4 9 12 5 6 8 6 15 16 28 5 3 6 10 5 15 11 11 25 25 30 46 60
14 13 10 8 5 4 7 3 10 9 6 10 2 6 2 9 11 16 11 13 9 14 14 15 5 7 3 10 9 15 10 10 14 9 11 8 20 18 27 37 13 27 21 36 51
14 15 11 12 8 5 4 10 8 5 12 3 4 4 5 8 2 11 5 9 11 10 7 7 15 2 3 5 7 8 5 6 10 9 28 37 13 11 14 25 23 16 17 28 42
13 15 17 16 11 6 2 7 15 14 9 11 4 8 9 5 1 7 3 11 6 7 7 8 12 9 4 3 4 5 4 6 8 22 11 9 12 23 20 20 11 13 31 46 53
14 17 23 19 13 8 5 12 8 9 10 6 11 5 6 8 1 4 1 8 9 9 9 3 12 4 11 10 7 7 2 5 4 9 11 19 25 22 27 25 23 24 38 47 54
13 6 11 18 17 9 6 14 10 14 11 8 12 7 8 5 8 4 6 9 6 8 16 10 9 12 8 7 10 5 6 4 3 5 5 12 23 11 15 12 19 23 47 62 73
15 3 9 18 8 1 5 11 5 10 11 3 5 5 13 10 7 5 10 11 18 23 12 14 8 11 20 7 7 10 9 7 7 11 5 11 27 10 27 18 17 48 71 72 77
15 9 13 29 6 6 6 6 7 8 11 8 10 8 5 10 2 9 10 7 26 20 13 12 2 10 17 10 8 5 6 10 3 3 19 9 18 8 4 36 61 60 72 67 71
15 4 12 23 10 9 8 8 6 17 6 9 9 9 6 7 8 7 7 8 22 27 17 18 7 15 15 20 5 26 21 21 12 12 13 34 61 67 53 41 55 62 69 71 71
26 15 15 9 13 15 11 10 10 10 11 18 3 13 14 8 5 10 9 8 10 14 14 14 11 12 30 40 38 50 51 38 37 43 25 55 35 58 49 47 61 72 73 70 72
26 17 17 12 12 17 11 14 21 9 18 10 9 14 13 13 18 17 11 8 11 6 14 4 8 3 30 22 12 35 41 40 40 39 50 59 65 62 81 68 50 56 56 56 65
67 37 16 18 15 12 11 15 20 25 28 15 35 13 19 38 39 27 16 15 10 13 12 8 5 7 13 15 24 15 15 11 8 17 14 17 37 34 38 44 55 57 55 59 64
Wind_Direction_500mb
74 70 67 61 49 46 39 32 25 20 18 22 21 25 35 55 31 58 39 10 354 353 352 350 324 340 323 249 300 323 325 214 215 194 262 198 328 270 301 295 308 269 253 234 203
70 63 58 56 45 37 36 36 39 38 33 32 30 20 28 109 51 46 27 17 6 359 358 3 10 10 59 24 63 29 341 261 262 251 264 266 245 280 297 294 296 295 275 218 205
68 59 56 56 51 38 40 45 58 54 44 56 47 5 136 167 16 15 22 18 10 8 4 5 18 47 63 18 16 345 202 1 333 343 337 331 307 287 275 288 278 272 277 219 198
67 62 55 55 56 41 46 51 63 59 49 51 60 50 84 124 60 6 14 16 19 15 13 25 36 48 64 17 5 347 310 354 314 324 328 316 313 302 294 280 291 302 314 227 201
71 62 56 54 55 49 50 45 68 65 58 54 60 63 70 74 35 18 21 19 24 25 30 35 37 39 49 347 344 61 341 323 313 314 311 308 294 283 284 281 280 292 287 251 217
72 63 55 54 56 50 50 42 67 70 59 49 51 57 55 65 22 16 21 26 23 36 39 45 41 51 47 357 48 317 306 303 308 300 296 280 290 295 299 288 284 280 271 266 228
75 65 57 55 50 48 40 38 43 57 47 38 45 47 45 42 26 21 30 30 23 32 39 44 63 54 9 341 332 308 333 332 26 343 316 325 273 246 294 293 280 265 267 254 239
73 55 43 44 46 49 54 43 31 53 28 23 12 34 63 37 29 41 36 40 37 43 55 68 68 51 32 323 24 4 38 6 328 339 328 348 280 310 300 316 333 320 293 273 259
54 45 35 29 28 21 308 339 33 268 52 43 29 68 40 28 31 33 26 24 49 70 63 71 57 48 30 49 23 24 326 334 326 322 333 6 301 318 316 302 295 300 307 292 273
27 31 31 23 15 356 339 268 266 14 227 334 26 46 21 360 23 25 37 34 34 72 53 41 52 56 28 39 21 322 315 287 303 313 332 320 303 309 306 304 301 293 282 283 282
9 16 20 11 3 5 360 233 68 159 60 65 45 49 353 9 18 22 25 24 35 45 29 23 53 34 356 64 220 236 276 287 283 294 330 308 295 304 301 295 292 290 278 267 274
346 356 355 3 1 7 11 55 88 141 76 58 33 18 345 350 329 19 21 45 35 32 349 28 50 333 307 4 52 41 294 298 289 315 321 298 295 293 291 304 307 296 283 275 273
310 329 340 347 354 5 36 73 96 139 88 342 349 338 347 349 8 7 12 27 41 33 14 64 293 326 32 355 6 347 276 296 294 308 286 306 296 302 298 304 316 316 324 328 312
288 300 317 340 356 8 31 44 85 101 72 298 338 10 347 336 336 18 11 24 41 12 354 271 317 348 347 26 38 321 244 295 300 323 301 59 299 299 292 296 350 346 353 342 345
277 293 296 344 357 20 14 25 113 107 28 223 309 338 2 55 338 7 3 30 87 336 62 278 334 346 331 287 293 259 307 279 296 291 321 297 301 266 298 291 350 5 10 8 7
291 280 263 268 300 353 358 14 132 46 260 339 322 355 21 20 8 341 357 19 47 69 14 250 299 248 265 296 266 296 318 304 328 348 353 272 55 272 283 264 331 335 346 6 14
286 282 262 243 252 310 348 59 34 125 343 288 290 24 133 350 349 25 8 10 33 21 7 328 275 290 327 327 321 15 24 347 354 3 244 343 322 265 278 278 271 284 327 6 14
275 287 259 242 246 276 348 57 94 237 227 277 185 79 93 17 23 337 54 29 40 56 31 35 334 220 41 144 276 320 99 135 302 309 299 297 242 259 281 283 278 335 332 354 357
262 276 263 244 236 244 231 69 206 199 165 155 65 68 313 335 177 12 109 171 161 137 124 8 279 316 291 297 101 335 27 203 249 265 275 260 300 298 293 327 306 339 341 348 345
247 275 253 236 221 212 90 238 199 176 148 149 175 121 211 265 58 59 347 228 152 137 121 227 305 294 309 350 262 199 226 7 9 334 308 285 296 259 304 303 295 329 331 329 330
222 250 241 219 201 196 190 228 227 201 172 165 179 159 215 224 168 249 246 289 210 125 114 132 139 285 13 192 171 13 327 39 124 162 258 307 290 226 272 280 296 311 320 319 316
187 268 217 183 174 98 179 199 203 169 178 160 149 148 178 160 194 253 220 225 188 152 156 192 163 281 252 222 216 180 223 167 126 284 241 281 270 262 263 281 296 310 305 304 306
188 221 217 187 180 241 294 296 233 161 191 156 181 186 155 181 319 207 212 208 182 175 165 173 272 323 337 6 356 137 190 217 116 235 243 243 262 221 232 306 302 298 299 300 300
193 162 216 201 227 147 143 230 241 215 179 165 151 122 129 197 190 265 254 248 196 208 180 160 183 183 221 248 170 283 252 252 251 254 272 239 273 290 296 298 303 301 298 297 301
207 230 183 188 239 192 180 160 157 198 218 193 201 204 162 169 181 229 231 289 227 213 196 167 222 230 248 264 270 267 272 264 240 240 249 269 271 278 286 291 294 295 293 291 296
187 181 183 167 154 150 204 215 182 190 159 236 213 192 173 175 187 192 179 216 216 125 164 191 266 67 295 265 288 286 264 257 246 247 246 258 272 272 281 284 287 292 288 284 297
210 203 194 168 160 133 211 205 202 161 214 194 201 139 197 231 232 248 235 256 216 170 187 173 157 48 262 334 318 287 241 199 210 200 197 226 259 291 297 295 298 300 296 293 298
Wind_Speed_850mb
31 33 33 33 34 36 35 40 41 36 35 30 26 21 19 24 27 26 44 42 43 45 42 30 14 19 9 3 7 9 1 8 11 9 18 4 9 14 14 15 16 17 18 16 36
31 33 33 35 38 36 37 41 40 37 31 26 25 21 12 16 60 69 49 45 46 48 47 41 27 26 8 10 4 5 2 7 7 11 19 27 19 48 15 26 23 37 40 28 35
30 31 30 32 37 32 34 39 36 39 38 30 29 38 10 12 23 58 52 46 44 43 41 27 18 17 13 15 21 15 2 16 21 48 60 43 36 42 18 23 44 33 41 34 46
26 27 28 31 32 29 33 34 33 42 53 35 31 56 30 14 12 48 47 43 41 38 38 32 33 11 10 10 14 11 10 12 26 46 41 40 43 40 34 26 32 40 32 40 60
23 24 28 28 28 27 27 33 26 30 37 59 34 29 41 52 34 43 38 39 39 39 46 37 49 16 8 10 24 2 23 43 53 59 51 50 41 35 47 61 71 60 58 39 65
19 21 24 26 24 23 23 28 20 25 28 36 42 61 62 43 47 41 35 34 38 41 42 42 27 19 11 10 8 33 37 46 37 52 53 26 36 22 23 37 52 48 59 54 68
15 18 20 23 23 23 25 14 27 14 13 19 37 36 67 44 41 31 28 31 33 30 31 33 38 45 7 10 26 24 11 17 21 43 27 49 37 23 36 47 55 55 50 50 63
14 16 19 22 24 19 21 28 6 20 21 12 14 26 24 44 38 28 33 27 25 22 27 32 28 33 21 13 12 14 11 13 21 35 30 48 40 27 48 53 32 35 50 57 60
14 16 19 22 22 15 8 8 37 6 20 35 18 7 11 41 57 38 38 32 28 23 29 24 20 27 42 10 10 15 10 22 17 41 28 13 42 44 80 67 41 37 31 36 53
12 14 16 17 16 17 17 10 10 38 5 9 22 9 24 28 47 43 29 33 28 16 15 31 16 13 13 15 9 12 9 10 17 20 29 39 38 40 59 68 62 48 36 36 28
10 11 13 17 17 19 19 1 2 3 40 22 18 11 17 27 30 50 33 21 37 29 12 17 17 14 9 6 5 7 8 17 14 17 28 36 45 43 55 59 56 60 52 40 46
10 10 11 15 16 22 19 7 11 12 14 15 16 13 10 20 12 50 41 21 31 11 15 11 9 9 7 6 5 5 10 14 15 26 28 33 45 35 26 27 53 66 61 49 50
10 9 9 13 10 15 22 16 11 9 4 2 7 11 12 14 14 38 43 12 16 13 11 5 3 9 6 8 18 10 7 10 21 23 23 15 20 15 36 42 41 51 39 43 39
9 8 7 10 6 14 18 12 6 4 9 10 6 9 14 10 3 25 30 14 11 12 8 6 9 9 9 8 6 11 6 13 24 28 12 9 19 17 24 21 9 45 48 36 51
10 10 6 3 4 8 9 8 4 4 7 4 7 9 9 11 16 23 22 9 5 6 9 7 13 14 5 4 2 15 15 18 29 24 9 8 3 13 21 31 11 26 39 47 50
11 11 7 5 3 5 8 6 5 11 10 7 7 16 8 15 12 23 17 11 4 6 4 9 12 5 6 8 6 15 16 28 5 3 6 10 5 15 11 11 25 25 30 46 60
14 13 10 8 5 4 7 3 10 9 6 10 2 6 2 9 11 16 11 13 9 14 14 15 5 7 3 10 9 15 10 10 14 9 11 8 20 18 27 37 13 27 21 36 51
14 15 11 12 8 5 4 10 8 5 12 3 4 4 5 8 2 11 5 9 11 10 7 7 15 2 3 5 7 8 5 6 10 9 28 37 13 11 14 25 23 16 17 28 42
13 15 17 16 11 6 2 7 15 14 9 11 4 8 9 5 1 7 3 11 6 7 7 8 12 9 4 3 4 5 4 6 8 22 11 9 12 23 20 20 11 13 31 46 53
14 17 23 19 13 8 5 12 8 9 10 6 11 5 6 8 1 4 1 8 9 9 9 3 12 4 11 10 7 7 2 5 4 9 11 19 25 22 27 25 23 24 38 47 54
13 6 11 18 17 9 6 14 10 14 11 8 12 7 8 5 8 4 6 9 6 8 16 10 9 12 8 7 10 5 6 4 3 5 5 12 23 11 15 12 19 23 47 62 73
15 3 9 18 8 1 5 11 5 10 11 3 5 5 13 10 7 5 10 11 18 23 12 14 8 11 20 7 7 10 9 7 7 11 5 11 27 10 27 18 17 48 71 72 77
15 9 13 29 6 6 6 6 7 8 11 8 10 8 5 10 2 9 10 7 26 20 13 12 2 10 17 10 8 5 6 10 3 3 19 9 18 8 4 36 61 60 72 67 71
15 4 12 23 10 9 8 8 6 17 6 9 9 9 6 7 8 7 7 8 22 27 17 18 7 15 15 20 5 26 21 21 12 12 13 34 61 67 53 41 55 62 69 71 71
26 15 15 9 13 15 11 10 10 10 11 18 3 13 14 8 5 10 9 8 10 14 14 14 11 12 30 40 38 50 51 38 37 43 25 55 35 58 49 47 61 72 73 70 72
26 17 17 12 12 17 11 14 21 9 18 10 9 14 13 13 18 17 11 8 11 6 14 4 8 3 30 22 12 35 41 40 40 39 50 59 65 62 81 68 50 56 56 56 65
67 37 16 18 15 12 11 15 20 25 28 15 35 13 19 38 39 27 16 15 10 13 12 8 5 7 13 15 24 15 15 11 8 17 14 17 37 34 38 44 55 57 55 59 64
Wind_Direction_850mb
74 70 67 61 49 46 39 32 25 20 18 22 21 25 35 55 31 58 39 10 354 353 352 350 324 340 323 249 300 323 325 214 215 194 262 198 328 270 301 295 308 269 253 234 203
70 63 58 56 45 37 36 36 39 38 33 32 30 20 28 109 51 46 27 17 6 359 358 3 10 10 59 24 63 29 341 261 262 251 264 266 245 280 297 294 296 295 275 218 205
68 59 56 56 51 38 40 45 58 54 44 56 47 5 136 167 16 15 22 18 10 8 4 5 18 47 63 18 16 345 202 1 333 343 337 331 307 287 275 288 278 272 277 219 198
67 62 55 55 56 41 46 51 63 59 49 51 60 50 84 124 60 6 14 16 19 15 13 25 36 48 64 17 5 347 310 354 314 324 328 316 313 302 294 280 291 302 314 227 201
71 62 56 54 55 49 50 45 68 65 58 54 60 63 70 74 35 18 21 19 24 25 30 35 37 39 49 347 344 61 341 323 313 314 311 308 294 283 284 281 280 292 287 251 217
72 63 55 54 56 50 50 42 67 70 59 49 51 57 55 65 22 16 21 26 23 36 39 45 41 51 47 357 48 317 306 303 308 300 296 280 290 295 299 288 284 280 271 266 228
75 65 57 55 50 48 40 38 43 57 47 38 45 47 45 42 26 21 30 30 23 32 39 44 63 54 9 341 332 308 333 332 26 343 316 325 273 246 294 293 280 265 267 254 239
73 55 43 44 46 49 54 43 31 53 28 23 12 34 63 37 29 41 36 40 37 43 55 68 68 51 32 323 24 4 38 6 328 339 328 348 280 310 300 316 333 320 293 273 259
54 45 35 29 28 21 308 339 33 268 52 43 29 68 40 28 31 33 26 24 49 70 63 71 57 48 30 49 23 24 326 334 326 322 333 6 301 318 316 302 295 300 307 292 273
27 31 31 23 15 356 339 268 266 14 227 334 26 46 21 360 23 25 37 34 34 72 53 41 52 56 28 39 21 322 315 287 303 313 332 320 303 309 306 304 301 293 282 283 282
9 16 20 11 3 5 360 233 68 159 60 65 45 49 353 9 18 22 25 24 35 45 29 23 53 34 356 64 220 236 276 287 283 294 330 308 295 304 301 295 292 290 278 267 274
346 356 355 3 1 7 11 55 88 141 76 58 33 18 345 350 329 19 21 45 35 32 349 28 50 333 307 4 52 41 294 298 289 315 321 298 295 293 291 304 307 296 283 275 273
310 329 340 347 354 5 36 73 96 139 88 342 349 338 347 349 8 7 12 27 41 33 14 64 293 326 32 355 6 347 276 296 294 308 286 306 296 302 298 304 316 316 324 328 312
288 300 317 340 356 8 31 44 85 101 72 298 338 10 347 336 336 18 11 24 41 12 354 271 317 348 347 26 38 321 244 295 300 323 301 59 299 299 292 296 350 346 353 342 345
277 293 296 344 357 20 14 25 113 107 28 223 309 338 2 55 338 7 3 30 87 336 62 278 334 346 331 287 293 259 307 279 296 291 321 297 301 266 298 291 350 5 10 8 7
291 280 263 268 300 353 358 14 132 46 260 339 322 355 21 20 8 341 357 19 47 69 14 250 299 248 265 296 266 296 318 304 328 348 353 272 55 272 283 264 331 335 346 6 14
286 282 262 243 252 310 348 59 34 125 343 288 290 24 133 350 349 25 8 10 33 21 7 328 275 290 327 327 321 15 24 347 354 3 244 343 322 265 278 278 271 284 327 6 14
275 287 259 242 246 276 348 57 94 237 227 277 185 79 93 17 23 337 54 29 40 56 31 35 334 220 41 144 276 320 99 135 302 309 299 297 242 259 281 283 278 335 332 354 357
262 276 263 244 236 244 231 69 206 199 165 155 65 68 313 335 177 12 109 171 161 137 124 8 279 316 291 297 101 335 27 203 249 265 275 260 300 298 293 327 306 339 341 348 345
247 275 253 236 221 212 90 238 199 176 148 149 175 121 211 265 58 59 347 228 152 137 121 227 305 294 309 350 262 199 226 7 9 334 308 285 296 259 304 303 295 329 331 329 330
222 250 241 219 201 196 190 228 227 201 172 165 179 159 215 224 168 249 246 289 210 125 114 132 139 285 13 192 171 13 327 39 124 162 258 307 290 226 272 280 296 311 320 319 316
187 268 217 183 174 98 179 199 203 169 178 160 149 148 178 160 194 253 220 225 188 152 156 192 163 281 252 222 216 180 223 167 126 284 241 281 270 262 263 281 296 310 305 304 306
188 221 217 187 180 241 294 296 233 161 191 156 181 186 155 181 319 207 212 208 182 175 165 173 272 323 337 6 356 137 190 217 116 235 243 243 262 221 232 306 302 298 299 300 300
193 162 216 201 227 147 143 230 241 215 179 165 151 122 129 197 190 265 254 248 196 208 180 160 183 183 221 248 170 283 252 252 251 254 272 239 273 290 296 298 303 301 298 297 301
207 230 183 188 239 192 180 160 157 198 218 193 201 204 162 169 181 229 231 289 227 213 196 167 222 230 248 264 270 267 272 264 240 240 249 269 271 278 286 291 294 295 293 291 296
187 181 183 167 154 150 204 215 182 190 159 236 213 192 173 175 187 192 179 216 216 125 164 191 266 67 295 265 288 286 264 257 246 247 246 258 272 272 281 284 287 292 288 284 297
210 203 194 168 160 133 211 205 202 161 214 194 201 139 197 231 232 248 235 256 216 170 187 173 157 48 262 334 318 287 241 199 210 200 197 226 259 291 297 295 298 300 296 293 298